����������;��������(kVARh)
2018-08-06 00:00;3,55
2018-08-06 00:15;4,1
2018-08-06 00:30;4,05
2018-08-06 00:45;4,75
2018-08-06 01:00;3,65
2018-08-06 01:15;2,9
2018-08-06 01:30;2,35
2018-08-06 01:45;2,6
2018-08-06 02:00;3,95
2018-08-06 02:15;4,45
2018-08-06 02:30;5,85
2018-08-06 02:45;5,8
2018-08-06 03:00;6,05
2018-08-06 03:15;7,25
2018-08-06 03:30;6,7
2018-08-06 03:45;7,75
2018-08-06 04:00;7,7
2018-08-06 04:15;7,4
2018-08-06 04:30;8,1
2018-08-06 04:45;8,2
2018-08-06 05:00;8,85
2018-08-06 05:15;8,4
2018-08-06 05:30;7,5
2018-08-06 05:45;8,15
2018-08-06 06:00;10,2
2018-08-06 06:15;5,9
2018-08-06 06:30;6,6
2018-08-06 06:45;7
2018-08-06 07:00;5,25
2018-08-06 07:15;5,85
2018-08-06 07:30;4,95
2018-08-06 07:45;8,7
2018-08-06 08:00;9,2
2018-08-06 08:15;8,6
2018-08-06 08:30;8,3
2018-08-06 08:45;5,1
2018-08-06 09:00;5,4
2018-08-06 09:15;5,65
2018-08-06 09:30;4,95
2018-08-06 09:45;5,7
2018-08-06 10:00;3,9
2018-08-06 10:15;5,65
2018-08-06 10:30;6,05
2018-08-06 10:45;7,05
2018-08-06 11:00;7,15
2018-08-06 11:15;7,2
2018-08-06 11:30;8
2018-08-06 11:45;8,15
2018-08-06 12:00;9,25
2018-08-06 12:15;7,95
2018-08-06 12:30;7,9
2018-08-06 12:45;7,7
2018-08-06 13:00;4,4
2018-08-06 13:15;5,7
2018-08-06 13:30;4,55
2018-08-06 13:45;4,8
2018-08-06 14:00;6,6
2018-08-06 14:15;8,45
2018-08-06 14:30;9,05
2018-08-06 14:45;9,7
2018-08-06 15:00;10,25
2018-08-06 15:15;8,65
2018-08-06 15:30;10,85
2018-08-06 15:45;9,75
2018-08-06 16:00;11
2018-08-06 16:15;10,85
2018-08-06 16:30;10,85
2018-08-06 16:45;11,15
2018-08-06 17:00;10,05
2018-08-06 17:15;9,3
2018-08-06 17:30;8,5
2018-08-06 17:45;7,2
2018-08-06 18:00;8,4
2018-08-06 18:15;7,35
2018-08-06 18:30;7,25
2018-08-06 18:45;7,9
2018-08-06 19:00;9,25
2018-08-06 19:15;9,15
2018-08-06 19:30;8,65
2018-08-06 19:45;10,35
2018-08-06 20:00;9,15
2018-08-06 20:15;8,8
2018-08-06 20:30;8,25
2018-08-06 20:45;8,3
2018-08-06 21:00;5,75
2018-08-06 21:15;8,2
2018-08-06 21:30;9,5
2018-08-06 21:45;11,05
2018-08-06 22:00;9,95
2018-08-06 22:15;6,85
2018-08-06 22:30;5,7
2018-08-06 22:45;7,45
2018-08-06 23:00;8,55
2018-08-06 23:15;9,3
2018-08-06 23:30;9,05
2018-08-06 23:45;9,35
2018-08-07 00:00;6,65
2018-08-07 00:15;7,05
2018-08-07 00:30;8,4
2018-08-07 00:45;8,4
2018-08-07 01:00;10,3
2018-08-07 01:15;11
2018-08-07 01:30;12,2
2018-08-07 01:45;10,55
2018-08-07 02:00;7,2
2018-08-07 02:15;8,9
2018-08-07 02:30;8,35
2018-08-07 02:45;9,9
2018-08-07 03:00;2,5
2018-08-07 03:15;0
2018-08-07 03:30;0,65
2018-08-07 03:45;0,2
2018-08-07 04:00;0,2
2018-08-07 04:15;0,95
2018-08-07 04:30;0,7
2018-08-07 04:45;0,65
2018-08-07 05:00;0,85
2018-08-07 05:15;0,65
2018-08-07 05:30;0,45
2018-08-07 05:45;0,75
2018-08-07 06:00;1,05
2018-08-07 06:15;0
2018-08-07 06:30;0
2018-08-07 06:45;3,4
2018-08-07 07:00;7,8
2018-08-07 07:15;4,4
2018-08-07 07:30;4,4
2018-08-07 07:45;4,25
2018-08-07 08:00;3,1
2018-08-07 08:15;2,95
2018-08-07 08:30;1,3
2018-08-07 08:45;0,95
2018-08-07 09:00;0,65
2018-08-07 09:15;0,9
2018-08-07 09:30;1,5
2018-08-07 09:45;2,5
2018-08-07 10:00;0,95
2018-08-07 10:15;1,5
2018-08-07 10:30;2,3
2018-08-07 10:45;4,3
2018-08-07 11:00;5,15
2018-08-07 11:15;6,45
2018-08-07 11:30;7,35
2018-08-07 11:45;7,9
2018-08-07 12:00;8,45
2018-08-07 12:15;9,05
2018-08-07 12:30;9,55
2018-08-07 12:45;11
2018-08-07 13:00;12,8
2018-08-07 13:15;12,9
2018-08-07 13:30;11,5
2018-08-07 13:45;11,5
2018-08-07 14:00;11,3
2018-08-07 14:15;12,35
2018-08-07 14:30;10,25
2018-08-07 14:45;12,05
2018-08-07 15:00;11,45
2018-08-07 15:15;10,4
2018-08-07 15:30;13,05
2018-08-07 15:45;12,95
2018-08-07 16:00;12,7
2018-08-07 16:15;11,75
2018-08-07 16:30;12
2018-08-07 16:45;10,35
2018-08-07 17:00;10,3
2018-08-07 17:15;10,95
2018-08-07 17:30;9,4
2018-08-07 17:45;9,35
2018-08-07 18:00;8,05
2018-08-07 18:15;11,25
2018-08-07 18:30;12,65
2018-08-07 18:45;13,85
2018-08-07 19:00;12,05
2018-08-07 19:15;11,85
2018-08-07 19:30;12,35
2018-08-07 19:45;13,5
2018-08-07 20:00;12,2
2018-08-07 20:15;9,9
2018-08-07 20:30;9,5
2018-08-07 20:45;10,1
2018-08-07 21:00;7,1
2018-08-07 21:15;11,25
2018-08-07 21:30;11,4
2018-08-07 21:45;14,95
2018-08-07 22:00;14,4
2018-08-07 22:15;14,1
2018-08-07 22:30;13,55
2018-08-07 22:45;14,85
2018-08-07 23:00;17,35
2018-08-07 23:15;8,7
2018-08-07 23:30;4,6
2018-08-07 23:45;5,2
2018-08-08 00:00;4,95
2018-08-08 00:15;5,65
2018-08-08 00:30;5,95
2018-08-08 00:45;2,7
2018-08-08 01:00;1
2018-08-08 01:15;2,45
2018-08-08 01:30;1,9
2018-08-08 01:45;3,5
2018-08-08 02:00;3,95
2018-08-08 02:15;5,3
2018-08-08 02:30;5,2
2018-08-08 02:45;7
2018-08-08 03:00;7,2
2018-08-08 03:15;7,7
2018-08-08 03:30;7,9
2018-08-08 03:45;8,7
2018-08-08 04:00;7,9
2018-08-08 04:15;8,75
2018-08-08 04:30;9,3
2018-08-08 04:45;9,85
2018-08-08 05:00;8,9
2018-08-08 05:15;9,6
2018-08-08 05:30;9,8
2018-08-08 05:45;8,6
2018-08-08 06:00;9,65
2018-08-08 06:15;7,85
2018-08-08 06:30;7,35
2018-08-08 06:45;8,55
2018-08-08 07:00;6,85
2018-08-08 07:15;6,05
2018-08-08 07:30;2,1
2018-08-08 07:45;1,2
2018-08-08 08:00;3,4
2018-08-08 08:15;2,6
2018-08-08 08:30;3,6
2018-08-08 08:45;1,1
2018-08-08 09:00;3
2018-08-08 09:15;1,5
2018-08-08 09:30;0,05
2018-08-08 09:45;0,65
2018-08-08 10:00;0
2018-08-08 10:15;0,7
2018-08-08 10:30;1,3
2018-08-08 10:45;2,4
2018-08-08 11:00;2,3
2018-08-08 11:15;1,3
2018-08-08 11:30;2,5
2018-08-08 11:45;2,5
2018-08-08 12:00;3,1
2018-08-08 12:15;3,25
2018-08-08 12:30;2,75
2018-08-08 12:45;2,8
2018-08-08 13:00;5,45
2018-08-08 13:15;6,45
2018-08-08 13:30;4,75
2018-08-08 13:45;9,45
2018-08-08 14:00;10,75
2018-08-08 14:15;11,9
2018-08-08 14:30;11,25
2018-08-08 14:45;9,9
2018-08-08 15:00;12,5
2018-08-08 15:15;9,2
2018-08-08 15:30;9,8
2018-08-08 15:45;10,2
2018-08-08 16:00;10,45
2018-08-08 16:15;5,7
2018-08-08 16:30;5,6
2018-08-08 16:45;2,85
2018-08-08 17:00;2,05
2018-08-08 17:15;2,6
2018-08-08 17:30;3,15
2018-08-08 17:45;2,2
2018-08-08 18:00;3,9
2018-08-08 18:15;3,75
2018-08-08 18:30;3,75
2018-08-08 18:45;3,65
2018-08-08 19:00;2,25
2018-08-08 19:15;3,2
2018-08-08 19:30;3,95
2018-08-08 19:45;4,85
2018-08-08 20:00;4,2
2018-08-08 20:15;5,8
2018-08-08 20:30;4,65
2018-08-08 20:45;5,35
2018-08-08 21:00;3,2
2018-08-08 21:15;5,75
2018-08-08 21:30;5,2
2018-08-08 21:45;6,55
2018-08-08 22:00;6,6
2018-08-08 22:15;7,4
2018-08-08 22:30;5,2
2018-08-08 22:45;6,75
2018-08-08 23:00;8,65
2018-08-08 23:15;8,25
2018-08-08 23:30;9,85
2018-08-08 23:45;11
2018-08-09 00:00;4,9
2018-08-09 00:15;5,8
2018-08-09 00:30;7,5
2018-08-09 00:45;4,8
2018-08-09 01:00;4,8
2018-08-09 01:15;6,15
2018-08-09 01:30;8,45
2018-08-09 01:45;1,9
2018-08-09 02:00;2,55
2018-08-09 02:15;4,1
2018-08-09 02:30;4,6
2018-08-09 02:45;6,65
2018-08-09 03:00;5,3
2018-08-09 03:15;7,2
2018-08-09 03:30;6,3
2018-08-09 03:45;7,15
2018-08-09 04:00;7,35
2018-08-09 04:15;5,6
2018-08-09 04:30;7,05
2018-08-09 04:45;7,35
2018-08-09 05:00;8,4
2018-08-09 05:15;7,35
2018-08-09 05:30;6,9
2018-08-09 05:45;7,45
2018-08-09 06:00;7,5
2018-08-09 06:15;6,3
2018-08-09 06:30;4,35
2018-08-09 06:45;4,85
2018-08-09 07:00;4,7
2018-08-09 07:15;2,65
2018-08-09 07:30;1,65
2018-08-09 07:45;3,7
2018-08-09 08:00;2,5
2018-08-09 08:15;1,6
2018-08-09 08:30;0,9
2018-08-09 08:45;0,8
2018-08-09 09:00;0,5
2018-08-09 09:15;0,15
2018-08-09 09:30;0,05
2018-08-09 09:45;5,1
2018-08-09 10:00;8,4
2018-08-09 10:15;6,15
2018-08-09 10:30;4,3
2018-08-09 10:45;3,5
2018-08-09 11:00;7,45
2018-08-09 11:15;7
2018-08-09 11:30;6,5
2018-08-09 11:45;7,55
2018-08-09 12:00;8,05
2018-08-09 12:15;10,65
2018-08-09 12:30;9,75
2018-08-09 12:45;8,65
2018-08-09 13:00;9,55
2018-08-09 13:15;7,8
2018-08-09 13:30;6,05
2018-08-09 13:45;9,05
2018-08-09 14:00;8,15
2018-08-09 14:15;8,45
2018-08-09 14:30;9,45
2018-08-09 14:45;8,95
2018-08-09 15:00;9,75
2018-08-09 15:15;7,85
2018-08-09 15:30;8,8
2018-08-09 15:45;9,3
2018-08-09 16:00;8,1
2018-08-09 16:15;8,2
2018-08-09 16:30;7,95
2018-08-09 16:45;7,05
2018-08-09 17:00;6,85
2018-08-09 17:15;6,9
2018-08-09 17:30;6,75
2018-08-09 17:45;5,2
2018-08-09 18:00;5,1
2018-08-09 18:15;3,45
2018-08-09 18:30;0,95
2018-08-09 18:45;2,05
2018-08-09 19:00;1,5
2018-08-09 19:15;1,6
2018-08-09 19:30;2,1
2018-08-09 19:45;3,45
2018-08-09 20:00;2,25
2018-08-09 20:15;3,3
2018-08-09 20:30;2,45
2018-08-09 20:45;2,8
2018-08-09 21:00;2,2
2018-08-09 21:15;3,6
2018-08-09 21:30;5,05
2018-08-09 21:45;5,75
2018-08-09 22:00;6,45
2018-08-09 22:15;6,05
2018-08-09 22:30;7,7
2018-08-09 22:45;6,3
2018-08-09 23:00;8,35
2018-08-09 23:15;5,6
2018-08-09 23:30;4,8
2018-08-09 23:45;7,85
2018-08-10 00:00;3,5
2018-08-10 00:15;3,55
2018-08-10 00:30;5,1
2018-08-10 00:45;3,75
2018-08-10 01:00;5
2018-08-10 01:15;4,95
2018-08-10 01:30;5,75
2018-08-10 01:45;6,95
2018-08-10 02:00;7,95
2018-08-10 02:15;9,35
2018-08-10 02:30;7,8
2018-08-10 02:45;8,5
2018-08-10 03:00;8,15
2018-08-10 03:15;8,2
2018-08-10 03:30;8,45
2018-08-10 03:45;10,95
2018-08-10 04:00;10,45
2018-08-10 04:15;10,95
2018-08-10 04:30;11,7
2018-08-10 04:45;12,1
2018-08-10 05:00;11,95
2018-08-10 05:15;12,2
2018-08-10 05:30;11,5
2018-08-10 05:45;10,5
2018-08-10 06:00;11,15
2018-08-10 06:15;9
2018-08-10 06:30;10,45
2018-08-10 06:45;11,75
2018-08-10 07:00;10,9
2018-08-10 07:15;9,5
2018-08-10 07:30;6
2018-08-10 07:45;7,8
2018-08-10 08:00;4,65
2018-08-10 08:15;3,6
2018-08-10 08:30;3,4
2018-08-10 08:45;6,45
2018-08-10 09:00;6,3
2018-08-10 09:15;3,85
2018-08-10 09:30;3,9
2018-08-10 09:45;6,4
2018-08-10 10:00;6,45
2018-08-10 10:15;6,4
2018-08-10 10:30;5
2018-08-10 10:45;6
2018-08-10 11:00;3,5
2018-08-10 11:15;6
2018-08-10 11:30;5,6
2018-08-10 11:45;5,6
2018-08-10 12:00;6,65
2018-08-10 12:15;4,9
2018-08-10 12:30;4,95
2018-08-10 12:45;3,95
2018-08-10 13:00;5,3
2018-08-10 13:15;4,8
2018-08-10 13:30;3,55
2018-08-10 13:45;3,3
2018-08-10 14:00;1,1
2018-08-10 14:15;4,1
2018-08-10 14:30;3,5
2018-08-10 14:45;2,25
2018-08-10 15:00;4,45
2018-08-10 15:15;2,85
2018-08-10 15:30;4,15
2018-08-10 15:45;5,6
2018-08-10 16:00;5,55
2018-08-10 16:15;6,45
2018-08-10 16:30;5,75
2018-08-10 16:45;6,5
2018-08-10 17:00;5,45
2018-08-10 17:15;5,4
2018-08-10 17:30;4,95
2018-08-10 17:45;4,65
2018-08-10 18:00;3,8
2018-08-10 18:15;1,75
2018-08-10 18:30;2,65
2018-08-10 18:45;1,5
2018-08-10 19:00;1,75
2018-08-10 19:15;2,05
2018-08-10 19:30;2,65
2018-08-10 19:45;2,85
2018-08-10 20:00;3,55
2018-08-10 20:15;3,4
2018-08-10 20:30;2,7
2018-08-10 20:45;3,2
2018-08-10 21:00;1,6
2018-08-10 21:15;4
2018-08-10 21:30;6,5
2018-08-10 21:45;4,05
2018-08-10 22:00;2,05
2018-08-10 22:15;1,25
2018-08-10 22:30;1,5
2018-08-10 22:45;1,8
2018-08-10 23:00;4,85
2018-08-10 23:15;2,95
2018-08-10 23:30;5,2
2018-08-10 23:45;6,8
2018-08-11 00:00;0,45
2018-08-11 00:15;2,25
2018-08-11 00:30;1,9
2018-08-11 00:45;2,6
2018-08-11 01:00;3,25
2018-08-11 01:15;4,1
2018-08-11 01:30;3,95
2018-08-11 01:45;5,3
2018-08-11 02:00;5,55
2018-08-11 02:15;5,65
2018-08-11 02:30;7,75
2018-08-11 02:45;6,9
2018-08-11 03:00;7,05
2018-08-11 03:15;9,55
2018-08-11 03:30;7,8
2018-08-11 03:45;8,85
2018-08-11 04:00;10,2
2018-08-11 04:15;8,9
2018-08-11 04:30;9,9
2018-08-11 04:45;11,2
2018-08-11 05:00;10,45
2018-08-11 05:15;10,25
2018-08-11 05:30;10,75
2018-08-11 05:45;10,65
2018-08-11 06:00;10,8
2018-08-11 06:15;9,95
2018-08-11 06:30;8,2
2018-08-11 06:45;9,35
2018-08-11 07:00;9,3
2018-08-11 07:15;6,55
2018-08-11 07:30;5,35
2018-08-11 07:45;9,7
2018-08-11 08:00;6,05
2018-08-11 08:15;8,75
2018-08-11 08:30;10,4
2018-08-11 08:45;6,95
2018-08-11 09:00;6,95
2018-08-11 09:15;5,75
2018-08-11 09:30;4,15
2018-08-11 09:45;4,95
2018-08-11 10:00;4,15
2018-08-11 10:15;3,35
2018-08-11 10:30;3,55
2018-08-11 10:45;2,05
2018-08-11 11:00;1,4
2018-08-11 11:15;0,8
2018-08-11 11:30;1,05
2018-08-11 11:45;1,4
2018-08-11 12:00;0,9
2018-08-11 12:15;1,4
2018-08-11 12:30;1,15
2018-08-11 12:45;1,45
2018-08-11 13:00;1
2018-08-11 13:15;0,45
2018-08-11 13:30;0,75
2018-08-11 13:45;1,05
2018-08-11 14:00;1,4
2018-08-11 14:15;2,65
2018-08-11 14:30;1,6
2018-08-11 14:45;3,45
2018-08-11 15:00;4,15
2018-08-11 15:15;4,45
2018-08-11 15:30;7,15
2018-08-11 15:45;5,8
2018-08-11 16:00;6,9
2018-08-11 16:15;7,35
2018-08-11 16:30;6,15
2018-08-11 16:45;7,5
2018-08-11 17:00;6,95
2018-08-11 17:15;6,95
2018-08-11 17:30;7,6
2018-08-11 17:45;5,6
2018-08-11 18:00;7,05
2018-08-11 18:15;5,7
2018-08-11 18:30;5,55
2018-08-11 18:45;6,3
2018-08-11 19:00;6,5
2018-08-11 19:15;7,8
2018-08-11 19:30;7,95
2018-08-11 19:45;15,75
2018-08-11 20:00;10,1
2018-08-11 20:15;9,9
2018-08-11 20:30;10,35
2018-08-11 20:45;8,4
2018-08-11 21:00;6,85
2018-08-11 21:15;8,95
2018-08-11 21:30;7,75
2018-08-11 21:45;8,4
2018-08-11 22:00;7,6
2018-08-11 22:15;4,9
2018-08-11 22:30;5,5
2018-08-11 22:45;7,45
2018-08-11 23:00;7,35
2018-08-11 23:15;8,8
2018-08-11 23:30;10,2
2018-08-11 23:45;11,25
2018-08-12 00:00;5
2018-08-12 00:15;7,9
2018-08-12 00:30;7,65
2018-08-12 00:45;8,85
2018-08-12 01:00;10,7
2018-08-12 01:15;3,55
2018-08-12 01:30;2,4
2018-08-12 01:45;2,35
2018-08-12 02:00;3
2018-08-12 02:15;3,9
2018-08-12 02:30;3,75
2018-08-12 02:45;4,3
2018-08-12 03:00;4,8
2018-08-12 03:15;5,55
2018-08-12 03:30;5,6
2018-08-12 03:45;7,05
2018-08-12 04:00;7,2
2018-08-12 04:15;6,8
2018-08-12 04:30;8,9
2018-08-12 04:45;8,5
2018-08-12 05:00;7,9
2018-08-12 05:15;7,85
2018-08-12 05:30;10
2018-08-12 05:45;8,55
2018-08-12 06:00;7,45
2018-08-12 06:15;8,5
2018-08-12 06:30;6,9
2018-08-12 06:45;7,5
2018-08-12 07:00;7,8
2018-08-12 07:15;6,7
2018-08-12 07:30;5,2
2018-08-12 07:45;0,6
2018-08-12 08:00;0,75
2018-08-12 08:15;0,7
2018-08-12 08:30;0
2018-08-12 08:45;1,05
2018-08-12 09:00;7,25
2018-08-12 09:15;5,5
2018-08-12 09:30;4,7
2018-08-12 09:45;4,05
2018-08-12 10:00;3,55
2018-08-12 10:15;3,45
2018-08-12 10:30;2,75
2018-08-12 10:45;2,25
2018-08-12 11:00;0,85
2018-08-12 11:15;0,45
2018-08-12 11:30;1,15
2018-08-12 11:45;0,15
2018-08-12 12:00;0,05
2018-08-12 12:15;0,4
2018-08-12 12:30;6,45
2018-08-12 12:45;8
2018-08-12 13:00;6,05
2018-08-12 13:15;6,5
2018-08-12 13:30;6,4
2018-08-12 13:45;6,1
2018-08-12 14:00;6,75
2018-08-12 14:15;5,35
2018-08-12 14:30;6,75
2018-08-12 14:45;5,55
2018-08-12 15:00;7,6
2018-08-12 15:15;8,35
2018-08-12 15:30;7,95
2018-08-12 15:45;9
2018-08-12 16:00;9,25
2018-08-12 16:15;8,45
2018-08-12 16:30;9,3
2018-08-12 16:45;8,2
2018-08-12 17:00;6,85
2018-08-12 17:15;7,15
2018-08-12 17:30;6,25
2018-08-12 17:45;6,95
2018-08-12 18:00;4,7
2018-08-12 18:15;4,3
2018-08-12 18:30;3,35
2018-08-12 18:45;4
2018-08-12 19:00;3,9
2018-08-12 19:15;3,3
2018-08-12 19:30;2,85
2018-08-12 19:45;3,2
2018-08-12 20:00;2,7
2018-08-12 20:15;3,3
2018-08-12 20:30;3,25
2018-08-12 20:45;1,4
2018-08-12 21:00;1,7
2018-08-12 21:15;1,95
2018-08-12 21:30;1,5
2018-08-12 21:45;2,35
2018-08-12 22:00;0,9
2018-08-12 22:15;0,15
2018-08-12 22:30;0
2018-08-12 22:45;1,1
2018-08-12 23:00;2,05
2018-08-12 23:15;2,55
2018-08-12 23:30;4
2018-08-12 23:45;4,1

